Los Alamitos, CA

3:39 AM PDT on April 25, 2017 (GMT -0700)
Los Alamitos Army Air Field

Weather History for KSLI - March, 2013

Change the Weather History Date:

Friday, March 29, 2013

  Actual Average Record
Temperature  
Mean Temperature 60 °F -  
Max Temperature 67 °F 66 °F 91 °F (2003)
Min Temperature 53 °F 54 °F 42 °F (2007)
Degree Days  
Heating Degree Days 6    
Growing Degree Days 10 (Base 50)    
Moisture  
Dew Point 53 °F    
Average Humidity 84    
Maximum Humidity 100    
Minimum Humidity 51    
Precipitation  
Precipitation 0.00 in - - ()
Sea Level Pressure  
Sea Level Pressure 30.09 in    
Wind  
Wind Speed 4 mph (SSE)    
Max Wind Speed 13 mph    
Max Gust Speed -    
Visibility 8 miles    
Events      
Averages and records for this station are not official NWS values.
T = Trace of Precipitation, MM = Missing Value Source: NWS Daily Summary

Daily Weather History Graph

Daily Weather History Graph

Search for Another Location

Airport or City:

Trip Planner

Search our weather history database for the weather conditions in past years. The results will help you decide how hot, cold, wet, or windy it might be!

Date:

Astronomy

Mar. 29, 2013 Rise Set
Actual Time 6:43 AM PDT 7:10 PM PDT
Civil Twilight 6:18 AM PDT 7:35 PM PDT
Nautical Twilight 5:48 AM PDT 8:05 PM PDT
Astronomical Twilight 5:19 AM PDT 8:35 PM PDT
Moon 10:06 PM PDT (3/29) 8:04 AM PDT (3/29)
Length of Visible Light 13h 17m
Length of Day
12h 27m
Waning Gibbous, 93% of the Moon is Illuminated
Mar 29
Waning Gibbous
Apr 2
Last Quarter
Apr 10
New
Apr 18
First Quarter
Apr 25
Full

Hourly Weather History & Observations

Time (PDT) Temp. Dew Point Humidity Pressure Visibility Wind Dir Wind Speed Gust Speed Precip Events Conditions
12:58 AM 54.7 °F 54.5 °F 99% 30.08 in 10.0 mi SW 2.3 mph - N/A   Clear
1:58 AM 53.6 °F 53.6 °F 100% 30.09 in 10.0 mi ESE 2.3 mph - N/A   Clear
2:17 AM 53.6 °F 53.6 °F 100% 30.08 in 10.0 mi ENE 2.3 mph - N/A   Partly Cloudy
2:27 AM 53.6 °F 53.6 °F 100% 30.08 in 10.0 mi East 2.3 mph - N/A   Mostly Cloudy
2:58 AM 56.5 °F 56.5 °F 100% 30.08 in 10.0 mi SE 4.6 mph - N/A   Overcast
3:58 AM 57.2 °F 56.8 °F 99% 30.07 in 10.0 mi ESE 5.8 mph - N/A   Overcast
4:58 AM 56.7 °F 56.3 °F 99% 30.07 in 10.0 mi SSW 4.6 mph - N/A   Overcast
5:58 AM 56.8 °F 56.5 °F 99% 30.08 in 10.0 mi East 3.5 mph - N/A   Overcast
6:58 AM 56.7 °F 56.1 °F 98% 30.10 in 4.0 mi Calm Calm - N/A   Overcast
7:58 AM 57.0 °F 55.9 °F 96% 30.11 in 4.0 mi WNW 1.2 mph - N/A   Overcast
8:58 AM 58.5 °F 54.9 °F 88% 30.11 in 4.0 mi NNE 3.5 mph - N/A   Overcast
9:03 AM 59.0 °F 55.4 °F 88% 30.10 in 4.0 mi Variable 1.2 mph - N/A   Overcast
9:58 AM 61.3 °F 52.3 °F 72% 30.11 in 4.0 mi Variable 2.3 mph - N/A   Haze
10:19 AM 64.4 °F 50.0 °F 59% 30.10 in 5.0 mi Variable 2.3 mph - N/A   Haze
10:58 AM 65.8 °F 48.7 °F 54% 30.12 in 5.0 mi Variable 4.6 mph - N/A   Haze
11:58 AM 66.7 °F 48.7 °F 52% 30.12 in 6.0 mi SW 9.2 mph - N/A   Haze
12:55 PM 66.4 °F 48.6 °F 53% 30.10 in 6.0 mi SSW 8.1 mph - N/A   Haze
1:56 PM 66.7 °F 48.2 °F 51% 30.08 in 5.0 mi SSW 9.2 mph - N/A   Haze
2:55 PM 64.0 °F 49.1 °F 58% 30.07 in 5.0 mi SSW 12.7 mph - N/A   Haze
3:56 PM 64.0 °F 49.1 °F 58% 30.06 in 7.0 mi South 12.7 mph - N/A   Mostly Cloudy
4:58 PM 63.7 °F 48.2 °F 57% 30.06 in 10.0 mi South 9.2 mph - N/A   Mostly Cloudy
5:58 PM 60.3 °F 53.8 °F 79% 30.06 in 10.0 mi South 8.1 mph - N/A   Mostly Cloudy
6:58 PM 60.8 °F 49.5 °F 66% 30.08 in 10.0 mi West 6.9 mph - N/A   Mostly Cloudy
7:58 PM 57.6 °F 51.4 °F 80% 30.10 in 10.0 mi West 3.5 mph - N/A   Mostly Cloudy
8:46 PM 55.4 °F 55.4 °F 100% 30.11 in 10.0 mi South 3.5 mph - N/A   Overcast
8:58 PM 55.6 °F 55.4 °F 99% 30.11 in 10.0 mi ENE 4.6 mph - N/A   Overcast
9:13 PM 55.4 °F 55.4 °F 100% 30.11 in 10.0 mi SE 4.6 mph - N/A   Overcast
9:58 PM 56.3 °F 55.4 °F 97% 30.12 in 10.0 mi East 1.2 mph - N/A   Overcast
10:13 PM 55.4 °F 55.4 °F 100% 30.12 in 10.0 mi ESE 3.5 mph - N/A   Overcast
10:58 PM 55.4 °F 55.0 °F 99% 30.12 in 10.0 mi Calm Calm - N/A   Overcast
11:58 PM 56.5 °F 55.6 °F 97% 30.13 in 9.0 mi SSW 4.6 mph - N/A   Overcast